Regional Weather Roundup
Issued by NWS

Home | Current Version | Previous Version | Graphics & Text | Print | Product List | Glossary On
Versions: 1 2 3 4 5 6 7 8 9 10 11 12 13 14 15 16 17 18 19 20 21 22 23 24 25 26 27 28 29 30 31 32 33 34 35 36 37 38 39 40 41 42 43 44 45 46 47 48 49 50
000
ASUS43 KTOP 172008
RWRKS

WEATHER ROUNDUP FOR KANSAS
NATIONAL WEATHER SERVICE GOODLAND KS
300 PM CDT TUE OCT 17 2017

NOTE:  "FAIR" INDICATES FEW OR NO CLOUDS BELOW 12,000 FEET WITH NO
SIGNIFICANT WEATHER AND/OR OBSTRUCTIONS TO VISIBILITY.

KSZ001>006-013>018-027>032-041>047-172100-
NORTHWEST KANSAS

CITY           SKY/WX    TMP DP  RH WIND       PRES   REMARKS
GOODLAND       SUNNY     80  22  11 SE8       30.09F
HAYS           SUNNY     80  34  19 SE6       30.04F
HILL CITY      SUNNY     80  33  18 E5        30.05F
RUSSELL        SUNNY     79  43  27 S7        30.03F
$$

KSZ061>065-074>080-084>089-172100-
SOUTHWEST KANSAS

CITY           SKY/WX    TMP DP  RH WIND       PRES   REMARKS
DODGE CITY     SUNNY     80  37  21 S13       30.07F
ELKHART          N/A     75  41  29 SE9         N/A
GARDEN CITY    SUNNY     80  40  23 SE10      30.06F
GREAT BEND     SUNNY     78  46  32 S12G18    30.05F
LIBERAL        SUNNY     77  42  28 S13       30.07F
PRATT          SUNNY     76  39  26 S17       30.08F
$$

KSZ066>073-081>083-090>101-172100-
SOUTHEAST KANSAS

CITY           SKY/WX    TMP DP  RH WIND       PRES   REMARKS
CHANUTE        LGT RAIN  71  47  42 S18       30.15F
COFFEYVILLE    SUNNY     70  46  42 S15       30.17F
HUTCHINSON     SUNNY     76  46  34 S17       30.07F
NEWTON         SUNNY     72  47  40 S18       30.10F
PARSONS        SUNNY     71  47  42 S12G21    30.18F
WICHITA INTL   SUNNY     73  46  38 S16       30.10F
WICHITA JABRA  SUNNY     72  46  39 S18       30.10F
WICHITA MCCONL SUNNY     73  44  36 SW18G25   30.11F
WINFIELD       SUNNY     73  45  36 S18G24    30.14F
$$

KSZ007>012-019>026-033>040-048>060-102>105-172100-
NORTHEAST KANSAS

CITY           SKY/WX    TMP DP  RH WIND       PRES   REMARKS
CONCORDIA      SUNNY     72  46  39 S12       30.05F
EMPORIA        SUNNY     74  44  34 S24G30    30.09F
LAWRENCE       SUNNY     73  46  38 S12G21    30.10F
MANHATTAN      SUNNY     75  47  36 SW13G23   30.05F
MARYSVILLE     SUNNY     72  46  40 SW12      30.05F
OLATHE IND     SUNNY     71  47  42 S16G23    30.12F
OLATHE EXE     SUNNY     69  45  41 S16G22    30.12F
SALINA         SUNNY     77  48  35 SW14G22   30.06F
TOPEKA BILLARD SUNNY     74  45  35 S14G21    30.08F
TOPEKA FORBES  SUNNY     75  45  34 S21       30.08F
$$




USA.gov is the U.S. government's official web portal to all federal, state and local government web resources and services.